owner,sensor,date,latitude,longitude,vertical_datum,wind_speed,wind_to_direction,wind_speed_of_gust,qcFlag 
LUMCON,ioos:station:LUMCON:101:1,2016-10-01T00:00:00Z,29.2533,-90.6633,1.0,3.6,19.0,-9999.0,'1111122,1111122,1111122' 
LUMCON,ioos:station:LUMCON:101:1,2016-10-01T00:15:00Z,29.2533,-90.6633,1.0,3.8,15.0,-9999.0,'1111122,1111122,1111122' 
LUMCON,ioos:station:LUMCON:101:1,2016-10-01T00:30:00Z,29.2533,-90.6633,1.0,3.6,17.0,-9999.0,'1111122,1111122,1111122' 
LUMCON,ioos:station:LUMCON:101:1,2016-10-01T00:45:00Z,29.2533,-90.6633,1.0,3.6,22.0,-9999.0,'1111122,1111122,1111122' 
LUMCON,ioos:station:LUMCON:101:1,2016-10-01T01:00:00Z,29.2533,-90.6633,1.0,3.3,28.0,-9999.0,'1111122,1111122,1111122' 
LUMCON,ioos:station:LUMCON:101:1,2016-10-01T01:15:00Z,29.2533,-90.6633,1.0,2.8,26.0,-9999.0,'1111122,1111122,1111122' 
LUMCON,ioos:station:LUMCON:101:1,2016-10-01T01:30:00Z,29.2533,-90.6633,1.0,3.2,30.0,-9999.0,'1111122,1111122,1111122' 
LUMCON,ioos:station:LUMCON:101:1,2016-10-01T01:45:00Z,29.2533,-90.6633,1.0,2.9,30.0,-9999.0,'1111122,1111122,1111122' 
LUMCON,ioos:station:LUMCON:101:1,2016-10-01T02:00:00Z,29.2533,-90.6633,1.0,3.4,27.0,-9999.0,'1111122,1111122,1111122' 
LUMCON,ioos:station:LUMCON:101:1,2016-10-01T02:15:00Z,29.2533,-90.6633,1.0,4.0,36.0,-9999.0,'1111122,1111122,1111122' 
LUMCON,ioos:station:LUMCON:101:1,2016-10-01T02:30:00Z,29.2533,-90.6633,1.0,3.4,31.0,-9999.0,'1111122,1111122,1111122' 
LUMCON,ioos:station:LUMCON:101:1,2016-10-01T02:45:00Z,29.2533,-90.6633,1.0,3.0,31.0,-9999.0,'1111122,1111122,1111122' 
LUMCON,ioos:station:LUMCON:101:1,2016-10-01T03:00:00Z,29.2533,-90.6633,1.0,2.8,41.0,-9999.0,'1111122,1111122,1111122' 
LUMCON,ioos:station:LUMCON:101:1,2016-10-01T03:15:00Z,29.2533,-90.6633,1.0,2.5,44.0,-9999.0,'1111122,1111122,1111122' 
LUMCON,ioos:station:LUMCON:101:1,2016-10-01T03:30:00Z,29.2533,-90.6633,1.0,2.4,33.0,-9999.0,'1111122,1111122,1111122' 
LUMCON,ioos:station:LUMCON:101:1,2016-10-01T03:45:00Z,29.2533,-90.6633,1.0,2.7,30.0,-9999.0,'1111122,1111122,1111122' 
LUMCON,ioos:station:LUMCON:101:1,2016-10-01T04:00:00Z,29.2533,-90.6633,1.0,3.0,30.0,-9999.0,'1111122,1111122,1111122' 
LUMCON,ioos:station:LUMCON:101:1,2016-10-01T04:15:00Z,29.2533,-90.6633,1.0,2.7,20.0,-9999.0,'1111122,1111122,1111122' 
LUMCON,ioos:station:LUMCON:101:1,2016-10-01T04:30:00Z,29.2533,-90.6633,1.0,2.5,6.0,-9999.0,'1111122,1111122,1111122' 
LUMCON,ioos:station:LUMCON:101:1,2016-10-01T04:45:00Z,29.2533,-90.6633,1.0,2.2,6.0,-9999.0,'1111122,1111122,1111122' 
LUMCON,ioos:station:LUMCON:101:1,2016-10-01T05:00:00Z,29.2533,-90.6633,1.0,2.7,18.0,-9999.0,'1111122,1111122,1111122' 
LUMCON,ioos:station:LUMCON:101:1,2016-10-01T05:15:00Z,29.2533,-90.6633,1.0,2.6,9.0,-9999.0,'1111122,1111122,1111122' 
LUMCON,ioos:station:LUMCON:101:1,2016-10-01T05:30:00Z,29.2533,-90.6633,1.0,2.1,11.0,-9999.0,'1111122,1111122,1111122' 
LUMCON,ioos:station:LUMCON:101:1,2016-10-01T05:45:00Z,29.2533,-90.6633,1.0,2.7,6.0,-9999.0,'1111122,1111122,1111122' 
LUMCON,ioos:station:LUMCON:101:1,2016-10-01T06:00:00Z,29.2533,-90.6633,1.0,2.6,7.0,-9999.0,'1111122,1111122,1111122' 
LUMCON,ioos:station:LUMCON:101:1,2016-10-01T06:15:00Z,29.2533,-90.6633,1.0,2.2,3.0,-9999.0,'1111122,1111122,1111122' 
LUMCON,ioos:station:LUMCON:101:1,2016-10-01T06:30:00Z,29.2533,-90.6633,1.0,2.2,3.0,-9999.0,'1111122,1111122,1111122' 
LUMCON,ioos:station:LUMCON:101:1,2016-10-01T06:45:00Z,29.2533,-90.6633,1.0,2.1,8.0,-9999.0,'1111122,1111122,1111122' 
LUMCON,ioos:station:LUMCON:101:1,2016-10-01T07:00:00Z,29.2533,-90.6633,1.0,2.1,10.0,-9999.0,'1111122,1111122,1111122' 
LUMCON,ioos:station:LUMCON:101:1,2016-10-01T07:15:00Z,29.2533,-90.6633,1.0,1.4,357.0,-9999.0,'1111122,1111122,1111122' 
LUMCON,ioos:station:LUMCON:101:1,2016-10-01T07:30:00Z,29.2533,-90.6633,1.0,-9999.0,0.0,-9999.0,'1111122,1114422,1111122' 
LUMCON,ioos:station:LUMCON:101:1,2016-10-01T07:45:00Z,29.2533,-90.6633,1.0,-9999.0,0.0,-9999.0,'1111122,1114422,1111122' 
LUMCON,ioos:station:LUMCON:101:1,2016-10-01T08:00:00Z,29.2533,-90.6633,1.0,2.4,8.0,-9999.0,'1111122,1111122,1111122' 
LUMCON,ioos:station:LUMCON:101:1,2016-10-01T08:15:00Z,29.2533,-90.6633,1.0,2.6,356.0,-9999.0,'1111122,1111122,1111122' 
LUMCON,ioos:station:LUMCON:101:1,2016-10-01T08:30:00Z,29.2533,-90.6633,1.0,2.9,355.0,-9999.0,'1111122,1111122,1111122' 
LUMCON,ioos:station:LUMCON:101:1,2016-10-01T08:45:00Z,29.2533,-90.6633,1.0,3.6,358.0,-9999.0,'1111122,1111122,1111122' 
LUMCON,ioos:station:LUMCON:101:1,2016-10-01T09:00:00Z,29.2533,-90.6633,1.0,2.9,353.0,-9999.0,'1111122,1111122,1111122' 
LUMCON,ioos:station:LUMCON:101:1,2016-10-01T09:15:00Z,29.2533,-90.6633,1.0,3.0,351.0,-9999.0,'1111122,1111122,1111122' 
LUMCON,ioos:station:LUMCON:101:1,2016-10-01T09:30:00Z,29.2533,-90.6633,1.0,3.2,352.0,-9999.0,'1111122,1111122,1111122' 
LUMCON,ioos:station:LUMCON:101:1,2016-10-01T09:45:00Z,29.2533,-90.6633,1.0,3.7,1.0,-9999.0,'1111122,1111122,1111122' 
LUMCON,ioos:station:LUMCON:101:1,2016-10-01T10:00:00Z,29.2533,-90.6633,1.0,3.0,357.0,-9999.0,'1111122,1111122,1111122' 
LUMCON,ioos:station:LUMCON:101:1,2016-10-01T10:15:00Z,29.2533,-90.6633,1.0,3.1,353.0,-9999.0,'1111122,1111122,1111122' 
LUMCON,ioos:station:LUMCON:101:1,2016-10-01T10:30:00Z,29.2533,-90.6633,1.0,2.6,346.0,-9999.0,'1111122,1111122,1111122' 
LUMCON,ioos:station:LUMCON:101:1,2016-10-01T10:45:00Z,29.2533,-90.6633,1.0,2.4,351.0,-9999.0,'1111122,1111122,1111122' 
LUMCON,ioos:station:LUMCON:101:1,2016-10-01T11:00:00Z,29.2533,-90.6633,1.0,3.1,345.0,-9999.0,'1111122,1111122,1111122' 
LUMCON,ioos:station:LUMCON:101:1,2016-10-01T11:15:00Z,29.2533,-90.6633,1.0,3.1,352.0,-9999.0,'1111122,1111122,1111122' 
LUMCON,ioos:station:LUMCON:101:1,2016-10-01T11:30:00Z,29.2533,-90.6633,1.0,3.3,349.0,-9999.0,'1111122,1111122,1111122' 
LUMCON,ioos:station:LUMCON:101:1,2016-10-01T11:45:00Z,29.2533,-90.6633,1.0,3.2,348.0,-9999.0,'1111122,1111122,1111122' 
LUMCON,ioos:station:LUMCON:101:1,2016-10-01T12:00:00Z,29.2533,-90.6633,1.0,3.0,353.0,-9999.0,'1111122,1111122,1111122' 
LUMCON,ioos:station:LUMCON:101:1,2016-10-01T12:15:00Z,29.2533,-90.6633,1.0,2.7,9.0,-9999.0,'1111122,1111122,1111122' 
LUMCON,ioos:station:LUMCON:101:1,2016-10-01T12:30:00Z,29.2533,-90.6633,1.0,2.6,4.0,-9999.0,'1111122,1111122,1111122' 
LUMCON,ioos:station:LUMCON:101:1,2016-10-01T12:45:00Z,29.2533,-90.6633,1.0,3.0,2.0,-9999.0,'1111122,1111122,1111122' 
LUMCON,ioos:station:LUMCON:101:1,2016-10-01T13:00:00Z,29.2533,-90.6633,1.0,2.8,356.0,-9999.0,'1111122,1111122,1111122' 
LUMCON,ioos:station:LUMCON:101:1,2016-10-01T13:15:00Z,29.2533,-90.6633,1.0,3.1,359.0,-9999.0,'1111122,1111122,1111122' 
LUMCON,ioos:station:LUMCON:101:1,2016-10-01T13:30:00Z,29.2533,-90.6633,1.0,2.4,359.0,-9999.0,'1111122,1111122,1111122' 
LUMCON,ioos:station:LUMCON:101:1,2016-10-01T13:45:00Z,29.2533,-90.6633,1.0,2.8,15.0,-9999.0,'1111122,1111122,1111122' 
LUMCON,ioos:station:LUMCON:101:1,2016-10-01T14:00:00Z,29.2533,-90.6633,1.0,3.2,19.0,-9999.0,'1111122,1111122,1111122' 
LUMCON,ioos:station:LUMCON:101:1,2016-10-01T14:15:00Z,29.2533,-90.6633,1.0,4.7,12.0,-9999.0,'1111122,1111122,1111122' 
LUMCON,ioos:station:LUMCON:101:1,2016-10-01T14:30:00Z,29.2533,-90.6633,1.0,5.3,4.0,-9999.0,'1111122,1111122,1111122' 
LUMCON,ioos:station:LUMCON:101:1,2016-10-01T14:45:00Z,29.2533,-90.6633,1.0,4.7,20.0,-9999.0,'1111122,1111122,1111122' 
LUMCON,ioos:station:LUMCON:101:1,2016-10-01T15:00:00Z,29.2533,-90.6633,1.0,3.8,26.0,-9999.0,'1111122,1111122,1111122' 
LUMCON,ioos:station:LUMCON:101:1,2016-10-01T15:15:00Z,29.2533,-90.6633,1.0,4.4,38.0,-9999.0,'1111122,1111122,1111122' 
LUMCON,ioos:station:LUMCON:101:1,2016-10-01T15:30:00Z,29.2533,-90.6633,1.0,3.5,34.0,-9999.0,'1111122,1111122,1111122' 
LUMCON,ioos:station:LUMCON:101:1,2016-10-01T15:45:00Z,29.2533,-90.6633,1.0,4.5,37.0,-9999.0,'1111122,1111122,1111122' 
LUMCON,ioos:station:LUMCON:101:1,2016-10-01T16:00:00Z,29.2533,-90.6633,1.0,3.7,20.0,-9999.0,'1111122,1111122,1111122' 
LUMCON,ioos:station:LUMCON:101:1,2016-10-01T16:15:00Z,29.2533,-90.6633,1.0,5.5,25.0,-9999.0,'1111122,1111122,1111122' 
LUMCON,ioos:station:LUMCON:101:1,2016-10-01T16:30:00Z,29.2533,-90.6633,1.0,4.5,44.0,-9999.0,'1111122,1111122,1111122' 
LUMCON,ioos:station:LUMCON:101:1,2016-10-01T16:45:00Z,29.2533,-90.6633,1.0,3.6,53.0,-9999.0,'1111122,1111122,1111122' 
LUMCON,ioos:station:LUMCON:101:1,2016-10-01T17:00:00Z,29.2533,-90.6633,1.0,3.1,85.0,-9999.0,'1111122,1111122,1111122' 
LUMCON,ioos:station:LUMCON:101:1,2016-10-01T17:15:00Z,29.2533,-90.6633,1.0,4.4,58.0,-9999.0,'1111122,1111122,1111122' 
LUMCON,ioos:station:LUMCON:101:1,2016-10-01T17:30:00Z,29.2533,-90.6633,1.0,3.3,58.0,-9999.0,'1111122,1111122,1111122' 
LUMCON,ioos:station:LUMCON:101:1,2016-10-01T17:45:00Z,29.2533,-90.6633,1.0,4.5,42.0,-9999.0,'1111122,1111122,1111122' 
LUMCON,ioos:station:LUMCON:101:1,2016-10-01T18:00:00Z,29.2533,-90.6633,1.0,4.0,32.0,-9999.0,'1111122,1111122,1111122' 
LUMCON,ioos:station:LUMCON:101:1,2016-10-01T18:15:00Z,29.2533,-90.6633,1.0,3.7,49.0,-9999.0,'1111122,1111122,1111122' 
LUMCON,ioos:station:LUMCON:101:1,2016-10-01T18:30:00Z,29.2533,-90.6633,1.0,2.9,22.0,-9999.0,'1111122,1111122,1111122' 
LUMCON,ioos:station:LUMCON:101:1,2016-10-01T18:45:00Z,29.2533,-90.6633,1.0,3.4,63.0,-9999.0,'1111122,1111122,1111122' 
LUMCON,ioos:station:LUMCON:101:1,2016-10-01T19:00:00Z,29.2533,-90.6633,1.0,3.1,81.0,-9999.0,'1111122,1111122,1111122' 
LUMCON,ioos:station:LUMCON:101:1,2016-10-01T19:15:00Z,29.2533,-90.6633,1.0,1.4,74.0,-9999.0,'1111122,1111122,1111122' 
LUMCON,ioos:station:LUMCON:101:1,2016-10-01T19:30:00Z,29.2533,-90.6633,1.0,3.6,68.0,-9999.0,'1111122,1111122,1111122' 
LUMCON,ioos:station:LUMCON:101:1,2016-10-01T19:45:00Z,29.2533,-90.6633,1.0,3.4,67.0,-9999.0,'1111122,1111122,1111122' 
LUMCON,ioos:station:LUMCON:101:1,2016-10-01T20:00:00Z,29.2533,-90.6633,1.0,1.9,87.0,-9999.0,'1111122,1111122,1111122' 
LUMCON,ioos:station:LUMCON:101:1,2016-10-01T20:15:00Z,29.2533,-90.6633,1.0,4.0,92.0,-9999.0,'1111122,1111122,1111122' 
LUMCON,ioos:station:LUMCON:101:1,2016-10-01T20:30:00Z,29.2533,-90.6633,1.0,3.7,62.0,-9999.0,'1111122,1111122,1111122' 
LUMCON,ioos:station:LUMCON:101:1,2016-10-01T20:45:00Z,29.2533,-90.6633,1.0,2.9,75.0,-9999.0,'1111122,1111122,1111122' 
LUMCON,ioos:station:LUMCON:101:1,2016-10-01T21:00:00Z,29.2533,-90.6633,1.0,4.0,94.0,-9999.0,'1111122,1111122,1111122' 
LUMCON,ioos:station:LUMCON:101:1,2016-10-01T21:15:00Z,29.2533,-90.6633,1.0,4.3,93.0,-9999.0,'1111122,1111122,1111122' 
LUMCON,ioos:station:LUMCON:101:1,2016-10-01T21:30:00Z,29.2533,-90.6633,1.0,1.8,86.0,-9999.0,'1111122,1111122,1111122' 
LUMCON,ioos:station:LUMCON:101:1,2016-10-01T21:45:00Z,29.2533,-90.6633,1.0,2.8,53.0,-9999.0,'1111122,1111122,1111122' 
LUMCON,ioos:station:LUMCON:101:1,2016-10-01T22:00:00Z,29.2533,-90.6633,1.0,2.2,86.0,-9999.0,'1111122,1111122,1111122' 
LUMCON,ioos:station:LUMCON:101:1,2016-10-01T22:15:00Z,29.2533,-90.6633,1.0,1.9,70.0,-9999.0,'1111122,1111122,1111122' 
LUMCON,ioos:station:LUMCON:101:1,2016-10-01T22:30:00Z,29.2533,-90.6633,1.0,3.0,83.0,-9999.0,'1111122,1111122,1111122' 
LUMCON,ioos:station:LUMCON:101:1,2016-10-01T22:45:00Z,29.2533,-90.6633,1.0,2.0,78.0,-9999.0,'1111122,1111122,1111122' 
LUMCON,ioos:station:LUMCON:101:1,2016-10-01T23:00:00Z,29.2533,-90.6633,1.0,3.4,91.0,-9999.0,'1111122,1111122,1111122' 
LUMCON,ioos:station:LUMCON:101:1,2016-10-01T23:15:00Z,29.2533,-90.6633,1.0,2.6,103.0,-9999.0,'1111122,1111122,1111122' 
LUMCON,ioos:station:LUMCON:101:1,2016-10-01T23:30:00Z,29.2533,-90.6633,1.0,3.2,96.0,-9999.0,'1111122,1111122,1111122' 
LUMCON,ioos:station:LUMCON:101:1,2016-10-01T23:45:00Z,29.2533,-90.6633,1.0,2.0,88.0,-9999.0,'1111122,1111122,1111122' 
LUMCON,ioos:station:LUMCON:101:1,2016-10-02T00:00:00Z,29.2533,-90.6633,1.0,2.6,70.0,-9999.0,'1111122,1111122,1111122' 
LUMCON,ioos:station:LUMCON:101:1,2016-10-02T00:15:00Z,29.2533,-90.6633,1.0,3.6,50.0,-9999.0,'1111122,1111122,1111122' 
LUMCON,ioos:station:LUMCON:101:1,2016-10-02T00:30:00Z,29.2533,-90.6633,1.0,3.3,68.0,-9999.0,'1111122,1111122,1111122' 
LUMCON,ioos:station:LUMCON:101:1,2016-10-02T00:45:00Z,29.2533,-90.6633,1.0,4.5,73.0,-9999.0,'1111122,1111122,1111122' 
LUMCON,ioos:station:LUMCON:101:1,2016-10-02T01:00:00Z,29.2533,-90.6633,1.0,3.0,79.0,-9999.0,'1111122,1111122,1111122' 
LUMCON,ioos:station:LUMCON:101:1,2016-10-02T01:15:00Z,29.2533,-90.6633,1.0,3.0,81.0,-9999.0,'1111122,1111122,1111122' 
LUMCON,ioos:station:LUMCON:101:1,2016-10-02T01:30:00Z,29.2533,-90.6633,1.0,4.3,63.0,-9999.0,'1111122,1111122,1111122' 
LUMCON,ioos:station:LUMCON:101:1,2016-10-02T01:45:00Z,29.2533,-90.6633,1.0,3.7,75.0,-9999.0,'1111122,1111122,1111122' 
LUMCON,ioos:station:LUMCON:101:1,2016-10-02T02:00:00Z,29.2533,-90.6633,1.0,3.4,75.0,-9999.0,'1111122,1111122,1111122' 
LUMCON,ioos:station:LUMCON:101:1,2016-10-02T02:15:00Z,29.2533,-90.6633,1.0,3.0,86.0,-9999.0,'1111122,1111122,1111122' 
LUMCON,ioos:station:LUMCON:101:1,2016-10-02T02:30:00Z,29.2533,-90.6633,1.0,4.8,79.0,-9999.0,'1111122,1111122,1111122' 
LUMCON,ioos:station:LUMCON:101:1,2016-10-02T02:45:00Z,29.2533,-90.6633,1.0,3.1,87.0,-9999.0,'1111122,1111122,1111122' 
LUMCON,ioos:station:LUMCON:101:1,2016-10-02T03:00:00Z,29.2533,-90.6633,1.0,2.6,64.0,-9999.0,'1111122,1111122,1111122' 
LUMCON,ioos:station:LUMCON:101:1,2016-10-02T03:15:00Z,29.2533,-90.6633,1.0,4.1,66.0,-9999.0,'1111122,1111122,1111122' 
LUMCON,ioos:station:LUMCON:101:1,2016-10-02T03:30:00Z,29.2533,-90.6633,1.0,3.3,78.0,-9999.0,'1111122,1111122,1111122' 
LUMCON,ioos:station:LUMCON:101:1,2016-10-02T03:45:00Z,29.2533,-90.6633,1.0,3.2,81.0,-9999.0,'1111122,1111122,1111122' 
LUMCON,ioos:station:LUMCON:101:1,2016-10-02T04:00:00Z,29.2533,-90.6633,1.0,3.2,85.0,-9999.0,'1111122,1111122,1111122' 
LUMCON,ioos:station:LUMCON:101:1,2016-10-02T04:15:00Z,29.2533,-90.6633,1.0,2.5,76.0,-9999.0,'1111122,1111122,1111122' 
LUMCON,ioos:station:LUMCON:101:1,2016-10-02T04:30:00Z,29.2533,-90.6633,1.0,1.0,72.0,-9999.0,'1111122,1111122,1111122' 
LUMCON,ioos:station:LUMCON:101:1,2016-10-02T04:45:00Z,29.2533,-90.6633,1.0,2.3,77.0,-9999.0,'1111122,1111122,1111122' 
LUMCON,ioos:station:LUMCON:101:1,2016-10-02T05:00:00Z,29.2533,-90.6633,1.0,2.6,49.0,-9999.0,'1111122,1111122,1111122' 
LUMCON,ioos:station:LUMCON:101:1,2016-10-02T05:15:00Z,29.2533,-90.6633,1.0,1.9,35.0,-9999.0,'1111122,1111122,1111122' 
LUMCON,ioos:station:LUMCON:101:1,2016-10-02T05:30:00Z,29.2533,-90.6633,1.0,3.3,96.0,-9999.0,'1111122,1111122,1111122' 
LUMCON,ioos:station:LUMCON:101:1,2016-10-02T05:45:00Z,29.2533,-90.6633,1.0,3.1,70.0,-9999.0,'1111122,1111122,1111122' 
LUMCON,ioos:station:LUMCON:101:1,2016-10-02T06:00:00Z,29.2533,-90.6633,1.0,2.2,70.0,-9999.0,'1111122,1111122,1111122' 
LUMCON,ioos:station:LUMCON:101:1,2016-10-02T06:15:00Z,29.2533,-90.6633,1.0,2.6,64.0,-9999.0,'1111122,1111122,1111122' 
LUMCON,ioos:station:LUMCON:101:1,2016-10-02T06:30:00Z,29.2533,-90.6633,1.0,2.9,38.0,-9999.0,'1111122,1111122,1111122' 
LUMCON,ioos:station:LUMCON:101:1,2016-10-02T06:45:00Z,29.2533,-90.6633,1.0,2.9,61.0,-9999.0,'1111122,1111122,1111122' 
LUMCON,ioos:station:LUMCON:101:1,2016-10-02T07:00:00Z,29.2533,-90.6633,1.0,2.7,42.0,-9999.0,'1111122,1111122,1111122' 
LUMCON,ioos:station:LUMCON:101:1,2016-10-02T07:15:00Z,29.2533,-90.6633,1.0,2.1,36.0,-9999.0,'1111122,1111122,1111122' 
LUMCON,ioos:station:LUMCON:101:1,2016-10-02T07:30:00Z,29.2533,-90.6633,1.0,2.4,2.0,-9999.0,'1111122,1111122,1111122' 
LUMCON,ioos:station:LUMCON:101:1,2016-10-02T07:45:00Z,29.2533,-90.6633,1.0,2.7,16.0,-9999.0,'1111122,1111122,1111122' 
LUMCON,ioos:station:LUMCON:101:1,2016-10-02T08:00:00Z,29.2533,-90.6633,1.0,2.4,11.0,-9999.0,'1111122,1111122,1111122' 
LUMCON,ioos:station:LUMCON:101:1,2016-10-02T08:15:00Z,29.2533,-90.6633,1.0,3.2,33.0,-9999.0,'1111122,1111122,1111122' 
LUMCON,ioos:station:LUMCON:101:1,2016-10-02T08:30:00Z,29.2533,-90.6633,1.0,2.2,4.0,-9999.0,'1111122,1111122,1111122' 
LUMCON,ioos:station:LUMCON:101:1,2016-10-02T08:45:00Z,29.2533,-90.6633,1.0,3.4,10.0,-9999.0,'1111122,1111122,1111122' 
LUMCON,ioos:station:LUMCON:101:1,2016-10-02T09:00:00Z,29.2533,-90.6633,1.0,3.7,29.0,-9999.0,'1111122,1111122,1111122' 
LUMCON,ioos:station:LUMCON:101:1,2016-10-02T09:15:00Z,29.2533,-90.6633,1.0,3.2,18.0,-9999.0,'1111122,1111122,1111122' 
LUMCON,ioos:station:LUMCON:101:1,2016-10-02T09:30:00Z,29.2533,-90.6633,1.0,3.4,19.0,-9999.0,'1111122,1111122,1111122' 
LUMCON,ioos:station:LUMCON:101:1,2016-10-02T09:45:00Z,29.2533,-90.6633,1.0,3.6,18.0,-9999.0,'1111122,1111122,1111122' 
LUMCON,ioos:station:LUMCON:101:1,2016-10-02T10:00:00Z,29.2533,-90.6633,1.0,2.7,26.0,-9999.0,'1111122,1111122,1111122' 
LUMCON,ioos:station:LUMCON:101:1,2016-10-02T10:15:00Z,29.2533,-90.6633,1.0,2.7,25.0,-9999.0,'1111122,1111122,1111122' 
LUMCON,ioos:station:LUMCON:101:1,2016-10-02T10:30:00Z,29.2533,-90.6633,1.0,3.7,29.0,-9999.0,'1111122,1111122,1111122' 
LUMCON,ioos:station:LUMCON:101:1,2016-10-02T10:45:00Z,29.2533,-90.6633,1.0,3.0,42.0,-9999.0,'1111122,1111122,1111122' 
LUMCON,ioos:station:LUMCON:101:1,2016-10-02T11:00:00Z,29.2533,-90.6633,1.0,2.8,34.0,-9999.0,'1111122,1111122,1111122' 
LUMCON,ioos:station:LUMCON:101:1,2016-10-02T11:15:00Z,29.2533,-90.6633,1.0,3.5,57.0,-9999.0,'1111122,1111122,1111122' 
LUMCON,ioos:station:LUMCON:101:1,2016-10-02T11:30:00Z,29.2533,-90.6633,1.0,4.2,37.0,-9999.0,'1111122,1111122,1111122' 
LUMCON,ioos:station:LUMCON:101:1,2016-10-02T11:45:00Z,29.2533,-90.6633,1.0,2.7,18.0,-9999.0,'1111122,1111122,1111122' 
LUMCON,ioos:station:LUMCON:101:1,2016-10-02T12:00:00Z,29.2533,-90.6633,1.0,3.4,9.0,-9999.0,'1111122,1111122,1111122' 
LUMCON,ioos:station:LUMCON:101:1,2016-10-02T12:15:00Z,29.2533,-90.6633,1.0,3.7,13.0,-9999.0,'1111122,1111122,1111122' 
LUMCON,ioos:station:LUMCON:101:1,2016-10-02T12:30:00Z,29.2533,-90.6633,1.0,3.9,15.0,-9999.0,'1111122,1111122,1111122' 
LUMCON,ioos:station:LUMCON:101:1,2016-10-02T12:45:00Z,29.2533,-90.6633,1.0,3.7,13.0,-9999.0,'1111122,1111122,1111122' 
LUMCON,ioos:station:LUMCON:101:1,2016-10-02T13:00:00Z,29.2533,-90.6633,1.0,4.0,4.0,-9999.0,'1111122,1111122,1111122' 
LUMCON,ioos:station:LUMCON:101:1,2016-10-02T13:15:00Z,29.2533,-90.6633,1.0,4.0,23.0,-9999.0,'1111122,1111122,1111122' 
LUMCON,ioos:station:LUMCON:101:1,2016-10-02T13:30:00Z,29.2533,-90.6633,1.0,5.9,23.0,-9999.0,'1111122,1111122,1111122' 
LUMCON,ioos:station:LUMCON:101:1,2016-10-02T13:45:00Z,29.2533,-90.6633,1.0,3.6,32.0,-9999.0,'1111122,1111122,1111122' 
LUMCON,ioos:station:LUMCON:101:1,2016-10-02T14:00:00Z,29.2533,-90.6633,1.0,5.6,29.0,-9999.0,'1111122,1111122,1111122' 
LUMCON,ioos:station:LUMCON:101:1,2016-10-02T14:15:00Z,29.2533,-90.6633,1.0,3.8,31.0,-9999.0,'1111122,1111122,1111122' 
LUMCON,ioos:station:LUMCON:101:1,2016-10-02T14:30:00Z,29.2533,-90.6633,1.0,5.1,37.0,-9999.0,'1111122,1111122,1111122' 
LUMCON,ioos:station:LUMCON:101:1,2016-10-02T14:45:00Z,29.2533,-90.6633,1.0,6.1,38.0,-9999.0,'1111122,1111122,1111122' 
LUMCON,ioos:station:LUMCON:101:1,2016-10-02T15:00:00Z,29.2533,-90.6633,1.0,4.9,53.0,-9999.0,'1111122,1111122,1111122' 
LUMCON,ioos:station:LUMCON:101:1,2016-10-02T15:15:00Z,29.2533,-90.6633,1.0,5.2,48.0,-9999.0,'1111122,1111122,1111122' 
LUMCON,ioos:station:LUMCON:101:1,2016-10-02T15:30:00Z,29.2533,-90.6633,1.0,4.7,43.0,-9999.0,'1111122,1111122,1111122' 
LUMCON,ioos:station:LUMCON:101:1,2016-10-02T15:45:00Z,29.2533,-90.6633,1.0,4.7,63.0,-9999.0,'1111122,1111122,1111122' 
LUMCON,ioos:station:LUMCON:101:1,2016-10-02T16:00:00Z,29.2533,-90.6633,1.0,3.4,65.0,-9999.0,'1111122,1111122,1111122' 
LUMCON,ioos:station:LUMCON:101:1,2016-10-02T16:15:00Z,29.2533,-90.6633,1.0,3.3,68.0,-9999.0,'1111122,1111122,1111122' 
LUMCON,ioos:station:LUMCON:101:1,2016-10-02T16:30:00Z,29.2533,-90.6633,1.0,6.0,43.0,-9999.0,'1111122,1111122,1111122' 
LUMCON,ioos:station:LUMCON:101:1,2016-10-02T16:45:00Z,29.2533,-90.6633,1.0,3.6,59.0,-9999.0,'1111122,1111122,1111122' 
LUMCON,ioos:station:LUMCON:101:1,2016-10-02T17:00:00Z,29.2533,-90.6633,1.0,4.4,68.0,-9999.0,'1111122,1111122,1111122' 
LUMCON,ioos:station:LUMCON:101:1,2016-10-02T17:15:00Z,29.2533,-90.6633,1.0,4.2,69.0,-9999.0,'1111122,1111122,1111122' 
LUMCON,ioos:station:LUMCON:101:1,2016-10-02T17:30:00Z,29.2533,-90.6633,1.0,4.8,77.0,-9999.0,'1111122,1111122,1111122' 
LUMCON,ioos:station:LUMCON:101:1,2016-10-02T17:45:00Z,29.2533,-90.6633,1.0,4.1,71.0,-9999.0,'1111122,1111122,1111122' 
LUMCON,ioos:station:LUMCON:101:1,2016-10-02T18:00:00Z,29.2533,-90.6633,1.0,3.5,86.0,-9999.0,'1111122,1111122,1111122' 
LUMCON,ioos:station:LUMCON:101:1,2016-10-02T18:15:00Z,29.2533,-90.6633,1.0,6.0,75.0,-9999.0,'1111122,1111122,1111122' 
LUMCON,ioos:station:LUMCON:101:1,2016-10-02T18:30:00Z,29.2533,-90.6633,1.0,3.0,81.0,-9999.0,'1111122,1111122,1111122' 
LUMCON,ioos:station:LUMCON:101:1,2016-10-02T18:45:00Z,29.2533,-90.6633,1.0,4.1,75.0,-9999.0,'1111122,1111122,1111122' 
LUMCON,ioos:station:LUMCON:101:1,2016-10-02T19:00:00Z,29.2533,-90.6633,1.0,4.9,87.0,-9999.0,'1111122,1111122,1111122' 
LUMCON,ioos:station:LUMCON:101:1,2016-10-02T19:15:00Z,29.2533,-90.6633,1.0,6.7,83.0,-9999.0,'1111122,1111122,1111122' 
LUMCON,ioos:station:LUMCON:101:1,2016-10-02T19:30:00Z,29.2533,-90.6633,1.0,3.2,100.0,-9999.0,'1111122,1111122,1111122' 
LUMCON,ioos:station:LUMCON:101:1,2016-10-02T19:45:00Z,29.2533,-90.6633,1.0,5.6,99.0,-9999.0,'1111122,1111122,1111122' 
LUMCON,ioos:station:LUMCON:101:1,2016-10-02T20:00:00Z,29.2533,-90.6633,1.0,4.8,94.0,-9999.0,'1111122,1111122,1111122' 
LUMCON,ioos:station:LUMCON:101:1,2016-10-02T20:15:00Z,29.2533,-90.6633,1.0,5.6,67.0,-9999.0,'1111122,1111122,1111122' 
LUMCON,ioos:station:LUMCON:101:1,2016-10-02T20:30:00Z,29.2533,-90.6633,1.0,5.8,82.0,-9999.0,'1111122,1111122,1111122' 
LUMCON,ioos:station:LUMCON:101:1,2016-10-02T20:45:00Z,29.2533,-90.6633,1.0,4.0,66.0,-9999.0,'1111122,1111122,1111122' 
LUMCON,ioos:station:LUMCON:101:1,2016-10-02T21:00:00Z,29.2533,-90.6633,1.0,5.4,84.0,-9999.0,'1111122,1111122,1111122' 
LUMCON,ioos:station:LUMCON:101:1,2016-10-02T21:15:00Z,29.2533,-90.6633,1.0,5.7,78.0,-9999.0,'1111122,1111122,1111122' 
LUMCON,ioos:station:LUMCON:101:1,2016-10-02T21:30:00Z,29.2533,-90.6633,1.0,5.5,94.0,-9999.0,'1111122,1111122,1111122' 
LUMCON,ioos:station:LUMCON:101:1,2016-10-02T21:45:00Z,29.2533,-90.6633,1.0,5.0,89.0,-9999.0,'1111122,1111122,1111122' 
LUMCON,ioos:station:LUMCON:101:1,2016-10-02T22:00:00Z,29.2533,-90.6633,1.0,4.1,93.0,-9999.0,'1111122,1111122,1111122' 
LUMCON,ioos:station:LUMCON:101:1,2016-10-02T22:15:00Z,29.2533,-90.6633,1.0,5.5,87.0,-9999.0,'1111122,1111122,1111122' 
LUMCON,ioos:station:LUMCON:101:1,2016-10-02T22:30:00Z,29.2533,-90.6633,1.0,6.9,83.0,-9999.0,'1111122,1111122,1111122' 
LUMCON,ioos:station:LUMCON:101:1,2016-10-02T22:45:00Z,29.2533,-90.6633,1.0,5.1,96.0,-9999.0,'1111122,1111122,1111122' 
LUMCON,ioos:station:LUMCON:101:1,2016-10-02T23:00:00Z,29.2533,-90.6633,1.0,5.4,89.0,-9999.0,'1111122,1111122,1111122' 
LUMCON,ioos:station:LUMCON:101:1,2016-10-02T23:15:00Z,29.2533,-90.6633,1.0,3.5,87.0,-9999.0,'1111122,1111122,1111122' 
LUMCON,ioos:station:LUMCON:101:1,2016-10-02T23:30:00Z,29.2533,-90.6633,1.0,2.6,80.0,-9999.0,'1111122,1111122,1111122' 
LUMCON,ioos:station:LUMCON:101:1,2016-10-02T23:45:00Z,29.2533,-90.6633,1.0,2.8,76.0,-9999.0,'1111122,1111122,1111122' 
LUMCON,ioos:station:LUMCON:101:1,2016-10-03T00:00:00Z,29.2533,-90.6633,1.0,3.4,86.0,-9999.0,'1111122,1111122,1111122' 
LUMCON,ioos:station:LUMCON:101:1,2016-10-03T00:15:00Z,29.2533,-90.6633,1.0,2.2,70.0,-9999.0,'1111122,1111122,1111122' 
LUMCON,ioos:station:LUMCON:101:1,2016-10-03T00:30:00Z,29.2533,-90.6633,1.0,4.2,72.0,-9999.0,'1111122,1111122,1111122' 
LUMCON,ioos:station:LUMCON:101:1,2016-10-03T00:45:00Z,29.2533,-90.6633,1.0,4.7,68.0,-9999.0,'1111122,1111122,1111122' 
LUMCON,ioos:station:LUMCON:101:1,2016-10-03T01:00:00Z,29.2533,-90.6633,1.0,3.6,74.0,-9999.0,'1111122,1111122,1111122' 
LUMCON,ioos:station:LUMCON:101:1,2016-10-03T01:15:00Z,29.2533,-90.6633,1.0,3.1,60.0,-9999.0,'1111122,1111122,1111122' 
LUMCON,ioos:station:LUMCON:101:1,2016-10-03T01:30:00Z,29.2533,-90.6633,1.0,3.3,39.0,-9999.0,'1111122,1111122,1111122' 
LUMCON,ioos:station:LUMCON:101:1,2016-10-03T01:45:00Z,29.2533,-90.6633,1.0,3.8,55.0,-9999.0,'1111122,1111122,1111122' 